Time,TemperatureF,DewpointF,PressureIn,WindDirection,WindDirectionDegrees,WindSpeedMPH,WindSpeedGustMPH,Humidity,HourlyPrecipIn,Conditions,Clouds,dailyrainin,SoftwareType,DateUTC
2013-01-12 00:00:00,22.8,21.6,30.38,South,176,0.0,0.0,95,0.00,,,0.01,Wunderground v.1.15,2013-01-12 08:00:00,
2013-01-12 00:10:00,22.8,21.6,30.37,South,176,0.0,0.0,95,0.00,,,0.00,Wunderground v.1.15,2013-01-12 08:10:00,
2013-01-12 00:20:00,22.8,21.8,30.37,South,176,0.0,0.0,96,0.00,,,0.00,Wunderground v.1.15,2013-01-12 08:20:00,
2013-01-12 00:30:00,22.8,21.8,30.38,South,176,0.0,0.0,96,0.00,,,0.00,Wunderground v.1.15,2013-01-12 08:30:00,
2013-01-12 00:40:00,22.8,21.8,30.38,South,176,0.0,0.0,96,0.00,,,0.00,Wunderground v.1.15,2013-01-12 08:40:00,
2013-01-12 00:50:00,22.9,21.9,30.38,South,176,0.0,0.0,96,0.00,,,0.00,Wunderground v.1.15,2013-01-12 08:50:00,
2013-01-12 01:00:00,22.9,21.9,30.38,South,176,0.0,0.0,96,0.00,,,0.00,Wunderground v.1.15,2013-01-12 09:00:00,
2013-01-12 01:10:00,22.9,21.9,30.38,South,176,0.0,0.0,96,0.00,,,0.00,Wunderground v.1.15,2013-01-12 09:10:00,
2013-01-12 01:20:00,22.9,21.9,30.38,South,176,0.0,0.0,96,0.00,,,0.00,Wunderground v.1.15,2013-01-12 09:20:00,
2013-01-12 01:30:00,22.9,21.9,30.38,South,176,0.0,0.0,96,0.00,,,0.00,Wunderground v.1.15,2013-01-12 09:30:00,
2013-01-12 01:40:00,22.8,21.8,30.38,South,176,0.0,0.0,96,0.00,,,0.00,Wunderground v.1.15,2013-01-12 09:40:00,
2013-01-12 01:50:00,22.8,21.8,30.38,South,176,0.0,0.0,96,0.00,,,0.00,Wunderground v.1.15,2013-01-12 09:50:00,
2013-01-12 02:00:00,22.7,21.7,30.39,South,176,0.0,0.0,96,0.00,,,0.00,Wunderground v.1.15,2013-01-12 10:00:00,
2013-01-12 02:10:00,22.7,21.7,30.38,South,176,0.0,0.0,96,0.00,,,0.00,Wunderground v.1.15,2013-01-12 10:10:00,
2013-01-12 02:20:00,22.7,21.7,30.39,South,176,0.0,0.0,96,0.00,,,0.00,Wunderground v.1.15,2013-01-12 10:20:00,
2013-01-12 02:30:00,22.7,21.7,30.39,South,176,0.0,0.0,96,0.00,,,0.00,Wunderground v.1.15,2013-01-12 10:30:00,
2013-01-12 02:40:00,22.6,21.6,30.39,South,176,0.0,0.0,96,0.00,,,0.00,Wunderground v.1.15,2013-01-12 10:40:00,
2013-01-12 02:50:00,22.7,21.7,30.39,South,176,0.0,0.0,96,0.00,,,0.00,Wunderground v.1.15,2013-01-12 10:50:00,
2013-01-12 03:00:00,22.7,21.7,30.39,South,176,0.0,0.0,96,0.00,,,0.00,Wunderground v.1.15,2013-01-12 11:00:00,
2013-01-12 03:10:00,22.7,21.7,30.39,South,176,0.0,0.0,96,0.00,,,0.00,Wunderground v.1.15,2013-01-12 11:10:00,
2013-01-12 03:20:00,22.7,21.7,30.39,South,176,0.0,0.0,96,0.00,,,0.00,Wunderground v.1.15,2013-01-12 11:20:00,
2013-01-12 03:30:00,22.8,21.8,30.39,South,176,0.0,0.0,96,0.00,,,0.00,Wunderground v.1.15,2013-01-12 11:30:00,
2013-01-12 03:40:00,22.7,21.7,30.39,South,176,0.0,0.0,96,0.00,,,0.00,Wunderground v.1.15,2013-01-12 11:40:00,
2013-01-12 03:50:00,22.7,21.7,30.39,South,176,0.0,0.0,96,0.00,,,0.00,Wunderground v.1.15,2013-01-12 11:50:00,
2013-01-12 04:00:00,22.7,21.7,30.39,South,176,0.0,0.0,96,0.00,,,0.00,Wunderground v.1.15,2013-01-12 12:00:00,
2013-01-12 04:10:00,22.7,21.7,30.39,South,176,0.0,0.0,96,0.00,,,0.00,Wunderground v.1.15,2013-01-12 12:10:00,
2013-01-12 04:20:00,22.6,21.6,30.39,South,176,0.0,0.0,96,0.00,,,0.00,Wunderground v.1.15,2013-01-12 12:20:00,
2013-01-12 04:30:00,22.6,21.6,30.39,South,176,0.0,0.0,96,0.00,,,0.00,Wunderground v.1.15,2013-01-12 12:30:00,
2013-01-12 04:40:00,22.5,21.5,30.39,South,176,0.0,0.0,96,0.00,,,0.00,Wunderground v.1.15,2013-01-12 12:40:00,
2013-01-12 04:50:00,22.4,21.4,30.39,South,176,0.0,0.0,96,0.00,,,0.00,Wunderground v.1.15,2013-01-12 12:50:00,
2013-01-12 05:00:00,22.4,21.4,30.39,South,176,0.0,0.0,96,0.00,,,0.00,Wunderground v.1.15,2013-01-12 13:00:00,
2013-01-12 05:10:00,22.4,21.4,30.39,South,176,0.0,0.0,96,0.00,,,0.00,Wunderground v.1.15,2013-01-12 13:10:00,
2013-01-12 05:20:00,22.4,21.4,30.39,South,176,0.0,0.0,96,0.00,,,0.00,Wunderground v.1.15,2013-01-12 13:20:00,
2013-01-12 05:30:00,22.4,21.4,30.39,South,176,0.0,0.0,96,0.00,,,0.00,Wunderground v.1.15,2013-01-12 13:30:00,
2013-01-12 05:40:00,22.3,21.3,30.39,South,176,0.0,0.0,96,0.00,,,0.00,Wunderground v.1.15,2013-01-12 13:40:00,
2013-01-12 05:50:00,22.3,21.3,30.39,South,176,0.0,0.0,96,0.00,,,0.00,Wunderground v.1.15,2013-01-12 13:50:00,
2013-01-12 06:00:00,22.2,21.2,30.39,South,176,0.0,0.0,96,0.00,,,0.00,Wunderground v.1.15,2013-01-12 14:00:00,
2013-01-12 06:10:00,22.2,21.2,30.40,South,176,0.0,0.0,96,0.00,,,0.00,Wunderground v.1.15,2013-01-12 14:10:00,
2013-01-12 06:20:00,22.2,21.2,30.40,South,176,0.0,0.0,96,0.00,,,0.00,Wunderground v.1.15,2013-01-12 14:20:00,
2013-01-12 06:30:00,22.2,21.2,30.40,South,176,0.0,0.0,96,0.00,,,0.00,Wunderground v.1.15,2013-01-12 14:30:00,
2013-01-12 06:40:00,22.2,21.2,30.40,South,176,0.0,0.0,96,0.00,,,0.00,Wunderground v.1.15,2013-01-12 14:40:00,
2013-01-12 06:50:00,22.2,21.2,30.40,South,176,0.0,0.0,96,0.00,,,0.00,Wunderground v.1.15,2013-01-12 14:50:00,
2013-01-12 07:00:00,22.2,21.2,30.40,South,176,0.0,0.0,96,0.00,,,0.00,Wunderground v.1.15,2013-01-12 15:00:00,
2013-01-12 07:10:00,22.2,21.2,30.41,South,176,0.0,0.0,96,0.00,,,0.00,Wunderground v.1.15,2013-01-12 15:10:00,
2013-01-12 07:20:00,22.2,21.2,30.40,South,176,0.0,0.0,96,0.00,,,0.00,Wunderground v.1.15,2013-01-12 15:20:00,
2013-01-12 07:30:00,22.2,21.2,30.41,South,176,0.0,0.0,96,0.00,,,0.00,Wunderground v.1.15,2013-01-12 15:30:00,
2013-01-12 07:40:00,22.2,21.2,30.41,South,176,0.0,0.0,96,0.00,,,0.00,Wunderground v.1.15,2013-01-12 15:40:00,
2013-01-12 07:50:00,22.2,21.2,30.42,South,176,0.0,0.0,96,0.00,,,0.00,Wunderground v.1.15,2013-01-12 15:50:00,
2013-01-12 08:00:00,22.1,21.1,30.42,South,176,0.0,0.0,96,0.00,,,0.00,Wunderground v.1.15,2013-01-12 16:00:00,
2013-01-12 08:10:00,22.1,21.1,30.42,South,176,0.0,0.0,96,0.00,,,0.00,Wunderground v.1.15,2013-01-12 16:10:00,
2013-01-12 08:20:00,22.1,21.1,30.43,South,176,0.0,0.0,96,0.00,,,0.00,Wunderground v.1.15,2013-01-12 16:20:00,
2013-01-12 08:30:00,22.1,21.1,30.43,South,176,0.0,0.0,96,0.00,,,0.00,Wunderground v.1.15,2013-01-12 16:30:00,
2013-01-12 08:40:00,22.1,21.1,30.43,South,176,0.0,0.0,96,0.00,,,0.00,Wunderground v.1.15,2013-01-12 16:40:00,
2013-01-12 08:50:00,22.2,21.2,30.43,South,176,0.0,0.0,96,0.00,,,0.00,Wunderground v.1.15,2013-01-12 16:50:00,
2013-01-12 09:00:00,22.3,21.3,30.43,South,176,0.0,0.0,96,0.00,,,0.00,Wunderground v.1.15,2013-01-12 17:00:00,
2013-01-12 09:10:00,22.4,21.4,30.43,South,176,0.0,0.0,96,0.00,,,0.00,Wunderground v.1.15,2013-01-12 17:10:00,
2013-01-12 09:20:00,22.5,21.5,30.44,South,176,0.0,0.0,96,0.00,,,0.00,Wunderground v.1.15,2013-01-12 17:20:00,
2013-01-12 09:30:00,22.6,21.6,30.44,South,176,0.0,0.0,96,0.00,,,0.00,Wunderground v.1.15,2013-01-12 17:30:00,
2013-01-12 09:40:00,22.8,21.8,30.44,South,176,0.0,0.0,96,0.00,,,0.00,Wunderground v.1.15,2013-01-12 17:40:00,
2013-01-12 09:50:00,23.0,22.0,30.43,South,176,0.0,0.0,96,0.00,,,0.00,Wunderground v.1.15,2013-01-12 17:50:00,
2013-01-12 10:00:00,23.3,22.3,30.44,South,176,0.0,0.0,96,0.00,,,0.00,Wunderground v.1.15,2013-01-12 18:00:00,
2013-01-12 10:10:00,25.0,24.3,30.44,South,176,0.0,0.0,97,0.00,,,0.00,Wunderground v.1.15,2013-01-12 18:10:00,
2013-01-12 10:20:00,26.5,25.8,30.44,South,176,0.0,0.0,97,0.00,,,0.00,Wunderground v.1.15,2013-01-12 18:20:00,
2013-01-12 10:30:00,26.7,26.0,30.44,South,176,0.0,0.0,97,0.00,,,0.00,Wunderground v.1.15,2013-01-12 18:30:00,
2013-01-12 10:40:00,27.4,26.7,30.44,South,176,0.0,0.0,97,0.00,,,0.00,Wunderground v.1.15,2013-01-12 18:40:00,
2013-01-12 10:50:00,28.5,27.8,30.44,South,176,0.0,0.0,97,0.00,,,0.00,Wunderground v.1.15,2013-01-12 18:50:00,
2013-01-12 11:00:00,29.3,28.3,30.44,South,176,0.0,0.0,96,0.00,,,0.00,Wunderground v.1.15,2013-01-12 19:00:00,
2013-01-12 11:10:00,29.6,28.6,30.44,South,176,0.0,0.0,96,0.00,,,0.00,Wunderground v.1.15,2013-01-12 19:10:00,
2013-01-12 11:20:00,30.5,29.2,30.44,South,176,0.0,0.0,95,0.00,,,0.00,Wunderground v.1.15,2013-01-12 19:20:00,
2013-01-12 11:30:00,30.5,29.5,30.44,South,176,0.0,0.0,96,0.00,,,0.00,Wunderground v.1.15,2013-01-12 19:30:00,
2013-01-12 11:40:00,31.0,29.7,30.43,South,176,0.0,0.0,95,0.00,,,0.00,Wunderground v.1.15,2013-01-12 19:40:00,
2013-01-12 11:50:00,31.6,30.3,30.43,South,176,0.0,0.0,95,0.00,,,0.00,Wunderground v.1.15,2013-01-12 19:50:00,
2013-01-12 12:00:00,31.6,30.1,30.43,South,176,0.0,0.0,94,0.00,,,0.00,Wunderground v.1.15,2013-01-12 20:00:00,
2013-01-12 12:10:00,31.9,30.6,30.43,South,176,0.0,0.0,95,0.00,,,0.00,Wunderground v.1.15,2013-01-12 20:10:00,
2013-01-12 12:20:00,32.6,31.3,30.43,South,176,0.0,0.0,95,0.00,,,0.00,Wunderground v.1.15,2013-01-12 20:20:00,
2013-01-12 12:30:00,32.6,31.1,30.43,South,176,0.0,0.0,94,0.00,,,0.00,Wunderground v.1.15,2013-01-12 20:30:00,
2013-01-12 12:40:00,32.8,31.5,30.42,South,176,0.0,0.0,95,0.00,,,0.00,Wunderground v.1.15,2013-01-12 20:40:00,
2013-01-12 12:50:00,32.9,31.4,30.42,NNE,26,1.0,2.0,94,0.00,,,0.00,Wunderground v.1.15,2013-01-12 20:50:00,
2013-01-12 13:00:00,32.4,30.1,30.42,NNE,31,1.0,1.0,91,0.00,,,0.00,Wunderground v.1.15,2013-01-12 21:00:00,
2013-01-12 13:10:00,32.5,30.7,30.43,NNE,31,0.0,0.0,93,0.00,,,0.00,Wunderground v.1.15,2013-01-12 21:10:00,
2013-01-12 13:20:00,32.1,30.6,30.43,NNE,31,0.0,0.0,94,0.00,,,0.00,Wunderground v.1.15,2013-01-12 21:20:00,
2013-01-12 13:30:00,31.4,29.9,30.43,WNW,302,0.0,0.0,94,0.00,,,0.00,Wunderground v.1.15,2013-01-12 21:30:00,
2013-01-12 13:40:00,31.3,29.5,30.44,NE,44,1.0,1.0,93,0.00,,,0.00,Wunderground v.1.15,2013-01-12 21:40:00,
2013-01-12 13:50:00,31.2,29.4,30.44,NE,44,0.0,0.0,93,0.00,,,0.00,Wunderground v.1.15,2013-01-12 21:50:00,
2013-01-12 14:00:00,31.5,30.0,30.44,ESE,122,0.0,0.0,94,0.00,,,0.00,Wunderground v.1.15,2013-01-12 22:00:00,
2013-01-12 14:10:00,31.6,29.8,30.43,WSW,237,0.0,0.0,93,0.00,,,0.00,Wunderground v.1.15,2013-01-12 22:10:00,
2013-01-12 14:20:00,31.6,29.8,30.43,WSW,237,0.0,0.0,93,0.00,,,0.00,Wunderground v.1.15,2013-01-12 22:20:00,
2013-01-12 14:30:00,31.7,30.2,30.43,WSW,237,0.0,0.0,94,0.00,,,0.00,Wunderground v.1.15,2013-01-12 22:30:00,
2013-01-12 14:40:00,32.2,30.1,30.44,North,360,0.0,0.0,92,0.00,,,0.00,Wunderground v.1.15,2013-01-12 22:40:00,
2013-01-12 14:50:00,32.0,29.7,30.44,North,360,0.0,0.0,91,0.00,,,0.00,Wunderground v.1.15,2013-01-12 22:50:00,
2013-01-12 15:00:00,31.5,29.2,30.44,North,360,0.0,0.0,91,0.00,,,0.00,Wunderground v.1.15,2013-01-12 23:00:00,
2013-01-12 15:10:00,31.0,28.9,30.44,North,360,0.0,0.0,92,0.00,,,0.00,Wunderground v.1.15,2013-01-12 23:10:00,
2013-01-12 15:20:00,30.6,28.8,30.44,North,360,0.0,0.0,93,0.00,,,0.00,Wunderground v.1.15,2013-01-12 23:20:00,
2013-01-12 15:30:00,30.4,28.9,30.45,North,360,0.0,0.0,94,0.00,,,0.00,Wunderground v.1.15,2013-01-12 23:30:00,
2013-01-12 15:40:00,30.5,29.0,30.45,West,266,0.0,0.0,94,0.00,,,0.00,Wunderground v.1.15,2013-01-12 23:40:00,
2013-01-12 15:50:00,30.2,28.4,30.45,NW,321,0.0,0.0,93,0.00,,,0.00,Wunderground v.1.15,2013-01-12 23:50:00,
2013-01-12 16:00:00,29.9,27.9,30.44,NW,321,0.0,0.0,92,0.00,,,0.00,Wunderground v.1.15,2013-01-13 00:00:00,
2013-01-12 16:10:00,29.6,27.8,30.44,NW,321,0.0,0.0,93,0.00,,,0.00,Wunderground v.1.15,2013-01-13 00:10:00,
2013-01-12 16:20:00,29.4,27.6,30.44,NW,321,0.0,0.0,93,0.00,,,0.00,Wunderground v.1.15,2013-01-13 00:20:00,
2013-01-12 16:30:00,29.2,27.7,30.44,NW,321,0.0,0.0,94,0.00,,,0.00,Wunderground v.1.15,2013-01-13 00:30:00,
2013-01-12 16:40:00,28.9,27.4,30.44,NW,321,0.0,0.0,94,0.00,,,0.00,Wunderground v.1.15,2013-01-13 00:40:00,
2013-01-12 16:50:00,28.5,27.0,30.44,NW,321,0.0,0.0,94,0.00,,,0.00,Wunderground v.1.15,2013-01-13 00:50:00,
2013-01-12 17:00:00,28.2,26.7,30.45,NW,321,0.0,0.0,94,0.00,,,0.00,Wunderground v.1.15,2013-01-13 01:00:00,
2013-01-12 17:10:00,27.9,26.4,30.45,NW,321,0.0,0.0,94,0.00,,,0.00,Wunderground v.1.15,2013-01-13 01:10:00,
2013-01-12 17:20:00,27.6,26.4,30.45,NW,321,0.0,0.0,95,0.00,,,0.00,Wunderground v.1.15,2013-01-13 01:20:00,
2013-01-12 17:30:00,27.4,26.2,30.45,NW,321,0.0,0.0,95,0.00,,,0.00,Wunderground v.1.15,2013-01-13 01:30:00,
2013-01-12 17:40:00,27.2,26.0,30.45,NW,321,0.0,0.0,95,0.00,,,0.00,Wunderground v.1.15,2013-01-13 01:40:00,
2013-01-12 17:50:00,26.9,25.7,30.45,NW,321,0.0,0.0,95,0.00,,,0.00,Wunderground v.1.15,2013-01-13 01:50:00,
2013-01-12 18:00:00,26.7,25.5,30.45,NW,321,0.0,0.0,95,0.00,,,0.00,Wunderground v.1.15,2013-01-13 02:00:00,
2013-01-12 18:10:00,26.6,25.4,30.45,NW,321,0.0,0.0,95,0.00,,,0.00,Wunderground v.1.15,2013-01-13 02:10:00,
2013-01-12 18:20:00,26.3,25.3,30.45,NW,321,0.0,0.0,96,0.00,,,0.00,Wunderground v.1.15,2013-01-13 02:20:00,
2013-01-12 18:30:00,26.1,24.9,30.45,NW,321,0.0,0.0,95,0.00,,,0.00,Wunderground v.1.15,2013-01-13 02:30:00,
2013-01-12 18:40:00,25.8,24.8,30.46,NW,321,0.0,0.0,96,0.00,,,0.00,Wunderground v.1.15,2013-01-13 02:40:00,
2013-01-12 18:50:00,25.6,24.6,30.46,NW,321,0.0,0.0,96,0.00,,,0.00,Wunderground v.1.15,2013-01-13 02:50:00,
2013-01-12 19:00:00,25.4,24.4,30.46,NW,321,0.0,0.0,96,0.00,,,0.00,Wunderground v.1.15,2013-01-13 03:00:00,
2013-01-12 19:10:00,25.4,24.4,30.46,NW,321,0.0,0.0,96,0.00,,,0.00,Wunderground v.1.15,2013-01-13 03:10:00,
2013-01-12 19:20:00,25.4,24.4,30.46,NW,321,0.0,0.0,96,0.00,,,0.00,Wunderground v.1.15,2013-01-13 03:20:00,
2013-01-12 19:30:00,25.4,24.4,30.46,NW,321,0.0,0.0,96,0.00,,,0.00,Wunderground v.1.15,2013-01-13 03:30:00,
2013-01-12 19:40:00,25.3,24.3,30.46,NW,321,0.0,0.0,96,0.00,,,0.00,Wunderground v.1.15,2013-01-13 03:40:00,
2013-01-12 19:50:00,25.2,24.2,30.46,NW,321,0.0,0.0,96,0.00,,,0.00,Wunderground v.1.15,2013-01-13 03:50:00,
2013-01-12 20:00:00,25.1,24.1,30.46,NW,321,0.0,0.0,96,0.00,,,0.00,Wunderground v.1.15,2013-01-13 04:00:00,
2013-01-12 20:10:00,25.0,24.0,30.46,NW,321,0.0,0.0,96,0.00,,,0.00,Wunderground v.1.15,2013-01-13 04:10:00,
2013-01-12 20:20:00,24.9,23.9,30.45,NW,321,0.0,0.0,96,0.00,,,0.00,Wunderground v.1.15,2013-01-13 04:20:00,
2013-01-12 20:30:00,24.8,23.8,30.46,NW,321,0.0,0.0,96,0.00,,,0.00,Wunderground v.1.15,2013-01-13 04:30:00,
2013-01-12 20:40:00,24.7,23.5,30.46,NW,321,0.0,0.0,95,0.00,,,0.00,Wunderground v.1.15,2013-01-13 04:40:00,
2013-01-12 20:50:00,24.5,23.3,30.46,NW,321,0.0,0.0,95,0.00,,,0.00,Wunderground v.1.15,2013-01-13 04:50:00,
2013-01-12 21:00:00,24.3,23.3,30.46,NW,321,0.0,0.0,96,0.00,,,0.00,Wunderground v.1.15,2013-01-13 05:00:00,
2013-01-12 21:10:00,24.2,23.0,30.46,NW,321,0.0,0.0,95,0.00,,,0.00,Wunderground v.1.15,2013-01-13 05:10:00,
2013-01-12 21:20:00,24.0,22.8,30.46,NW,321,0.0,0.0,95,0.00,,,0.00,Wunderground v.1.15,2013-01-13 05:20:00,
2013-01-12 21:30:00,23.8,22.6,30.46,NW,321,0.0,0.0,95,0.00,,,0.00,Wunderground v.1.15,2013-01-13 05:30:00,
2013-01-12 21:40:00,23.7,22.5,30.46,NW,321,0.0,0.0,95,0.00,,,0.00,Wunderground v.1.15,2013-01-13 05:40:00,
2013-01-12 21:50:00,23.5,22.3,30.47,NW,321,0.0,0.0,95,0.00,,,0.00,Wunderground v.1.15,2013-01-13 05:50:00,
2013-01-12 22:00:00,23.4,22.2,30.47,NW,321,0.0,0.0,95,0.00,,,0.00,Wunderground v.1.15,2013-01-13 06:00:00,
2013-01-12 22:10:00,23.3,22.1,30.47,NW,321,0.0,0.0,95,0.00,,,0.00,Wunderground v.1.15,2013-01-13 06:10:00,
2013-01-12 22:20:00,23.1,21.9,30.48,NW,321,0.0,0.0,95,0.00,,,0.00,Wunderground v.1.15,2013-01-13 06:20:00,
2013-01-12 22:30:00,22.9,21.7,30.49,NW,321,0.0,0.0,95,0.00,,,0.00,Wunderground v.1.15,2013-01-13 06:30:00,
2013-01-12 22:40:00,22.8,21.6,30.49,NW,321,0.0,0.0,95,0.00,,,0.00,Wunderground v.1.15,2013-01-13 06:40:00,
2013-01-12 22:50:00,22.7,21.5,30.49,NW,321,0.0,0.0,95,0.00,,,0.00,Wunderground v.1.15,2013-01-13 06:50:00,
2013-01-12 23:00:00,22.6,21.4,30.49,NW,321,0.0,0.0,95,0.00,,,0.00,Wunderground v.1.15,2013-01-13 07:00:00,
2013-01-12 23:10:00,22.5,21.3,30.49,NW,321,0.0,0.0,95,0.00,,,0.00,Wunderground v.1.15,2013-01-13 07:10:00,
2013-01-12 23:20:00,22.3,21.1,30.49,NW,321,0.0,0.0,95,0.00,,,0.00,Wunderground v.1.15,2013-01-13 07:20:00,
2013-01-12 23:30:00,22.2,21.0,30.50,NW,321,0.0,0.0,95,0.00,,,0.00,Wunderground v.1.15,2013-01-13 07:30:00,
2013-01-12 23:40:00,22.1,20.9,30.50,NW,321,0.0,0.0,95,0.00,,,0.00,Wunderground v.1.15,2013-01-13 07:40:00,
2013-01-12 23:50:00,22.0,20.8,30.50,NW,321,0.0,0.0,95,0.00,,,0.00,Wunderground v.1.15,2013-01-13 07:50:00,